Temp
63 63 63 63 62 62 62 62 62 62 63 63 63 62 62 62 63 70 76 83 83 79 78 89 91 91 89 87 89 90 71 64 69 66 65 72 76 84 82 82 82 83 78 74 78
63 63 62 62 62 62 62 62 62 62 62 62 62 62 62 62 66 75 84 78 78 80 86 85 85 88 81 84 84 81 69 69 76 72 72 78 79 78 78 75 76 73 75 78 77
62 62 62 62 62 62 62 61 62 62 62 62 62 62 62 62 69 81 78 79 78 80 87 88 88 86 81 82 84 85 75 82 77 78 79 76 73 78 76 69 76 69 72 71 70
62 62 62 62 62 61 61 61 61 62 62 62 61 62 62 66 68 84 79 78 78 84 87 88 85 79 76 80 85 81 81 81 80 81 79 74 77 73 75 75 80 75 75 73 72
61 62 61 61 61 61 61 61 61 61 61 61 61 62 68 72 78 87 79 79 84 86 85 83 81 81 76 84 85 81 83 79 83 78 78 77 75 71 69 80 82 77 74 72 72
61 61 61 61 60 60 60 60 60 60 60 61 62 62 70 69 93 88 88 86 89 86 88 86 85 89 80 81 80 84 81 80 81 79 80 76 72 72 76 80 78 78 77 77 75
60 60 60 60 60 60 60 59 59 60 61 62 63 72 71 75 96 93 90 90 93 94 90 93 93 88 85 80 88 85 75 76 79 76 74 79 72 73 78 80 79 80 80 79 79
60 60 60 60 60 60 60 59 59 60 62 63 65 68 67 92 92 95 94 94 97 98 96 97 95 87 79 85 84 77 76 66 71 77 78 73 63 72 82 80 78 78 77 77 75
60 59 59 60 60 60 59 59 60 62 63 64 63 66 71 92 92 97 96 94 97 98 96 105 90 84 86 73 68 70 60 64 70 77 80 74 58 60 69 67 67 69 73 76 74
60 59 59 59 59 59 58 59 64 61 69 76 82 69 79 87 96 99 98 99 95 93 91 88 81 76 75 69 58 67 62 61 65 72 67 62 60 64 65 68 63 62 66 75 74
60 59 58 59 59 59 60 71 69 67 70 74 79 82 92 96 101 95 100 97 95 87 76 82 71 69 76 76 78 78 67 68 73 68 65 62 63 65 62 63 59 63 67 72 72
59 59 58 58 59 59 55 68 80 81 72 85 86 88 94 95 90 95 99 86 84 76 81 76 70 83 84 83 79 77 71 66 67 68 64 63 63 65 66 63 63 63 67 69 70
58 58 58 58 59 57 68 79 89 86 69 83 89 89 91 93 88 90 95 89 82 78 78 72 82 91 87 81 78 73 69 69 62 65 65 61 56 60 65 66 67 65 66 72 72
57 57 57 58 60 75 77 88 87 86 61 76 82 89 93 91 86 99 99 90 84 78 81 80 87 86 79 80 78 67 77 75 71 64 51 64 46 53 57 61 62 63 63 71 72
57 57 58 53 61 72 84 90 87 79 49 81 83 94 93 86 87 91 100 92 81 82 83 78 82 79 76 79 83 73 78 72 70 59 58 58 50 53 57 57 59 63 67 72 73
57 58 58 61 62 75 86 88 80 60 53 77 86 83 80 86 89 93 91 91 90 84 85 80 89 84 80 87 85 85 73 67 64 57 45 55 52 49 52 58 64 68 71 76 74
56 58 56 74 73 87 87 77 57 53 81 76 78 81 78 80 84 86 82 77 71 66 66 77 79 85 89 77 79 75 63 51 49 47 44 57 52 53 62 65 67 68 75 73 72
55 56 60 76 81 83 78 64 51 71 75 86 83 80 76 80 81 82 78 72 80 75 69 63 63 80 87 77 68 70 62 53 45 46 49 57 49 55 68 71 72 72 72 73 71
52 62 68 76 79 77 67 53 60 73 82 82 82 73 74 80 79 77 76 75 80 80 68 63 66 82 87 84 78 71 62 68 58 57 49 51 57 65 69 71 73 71 72 71 69
63 69 77 86 84 73 61 57 69 81 85 82 70 77 70 75 73 71 73 82 80 83 77 70 63 81 84 83 80 71 75 59 56 47 45 48 55 48 62 66 68 71 70 70 70
63 66 80 89 80 66 56 64 77 88 85 77 73 71 75 73 75 71 74 81 84 80 80 75 64 71 76 69 66 68 63 63 60 57 48 42 47 57 59 63 66 67 68 69 69
68 62 83 83 62 63 60 72 74 85 84 80 78 75 72 75 73 73 73 75 86 84 74 75 67 59 65 75 78 71 65 63 50 52 55 51 48 67 68 66 69 67 70 70 70
63 68 82 78 57 60 68 76 80 79 80 78 74 78 76 70 66 73 75 82 84 79 72 71 63 54 58 68 73 68 72 70 64 58 54 50 51 70 70 63 68 68 71 70 70
64 62 69 69 68 63 65 69 73 85 82 82 78 77 73 71 73 69 73 82 84 80 69 73 64 61 53 62 68 66 73 73 63 53 55 57 59 63 62 60 63 71 72 69 68
66 65 70 60 64 66 66 71 72 74 80 79 74 75 72 65 69 68 75 77 82 73 74 71 62 66 69 76 77 75 74 73 66 64 57 60 62 63 60 59 64 73 73 70 68
63 64 69 68 68 68 65 67 72 77 76 73 71 77 75 66 69 66 71 69 71 73 69 70 62 65 66 76 77 73 76 74 74 72 67 66 62 69 69 70 70 72 71 69 69
69 71 66 63 68 66 67 72 76 77 80 83 78 75 73 76 80 77 74 77 74 71 68 67 63 60 56 69 70 62 69 72 72 72 68 59 63 71 68 70 69 69 72 69 69
MSLP
1019.59 1019.38 1019.12 1018.81 1018.52 1018.28 1018.01 1017.60 1017.21 1016.77 1016.25 1015.73 1015.44 1015.11 1014.52 1013.80 1012.49 1011.64 1010.83 1008.87 1008.44 1008.43 1008.61 1008.28 1007.92 1007.54 1007.33 1006.92 1006.43 1007.00 1008.15 1008.87 1010.97 1011.89 1013.33 1012.32 1012.74 1010.95 1012.04 1011.82 1012.50 1012.92 1013.74 1015.73 1015.18
1019.57 1019.30 1019.00 1018.70 1018.34 1018.14 1017.87 1017.47 1017.08 1016.65 1016.17 1015.60 1015.35 1014.92 1014.36 1013.92 1012.91 1010.70 1008.58 1008.48 1008.42 1008.39 1008.42 1008.35 1008.03 1007.49 1007.61 1006.57 1005.92 1006.33 1007.00 1008.48 1009.44 1010.98 1012.00 1012.34 1011.69 1011.83 1012.56 1012.56 1013.33 1014.36 1014.57 1015.21 1016.55
1019.52 1019.23 1018.92 1018.57 1018.18 1017.93 1017.68 1017.32 1016.94 1016.51 1016.07 1015.54 1015.19 1014.70 1014.05 1013.91 1012.73 1009.22 1008.29 1008.34 1008.35 1008.32 1008.34 1008.16 1007.70 1007.42 1006.83 1005.93 1004.96 1005.28 1007.05 1008.35 1010.09 1010.14 1010.00 1010.91 1011.47 1011.91 1012.58 1013.02 1013.07 1014.58 1014.90 1014.90 1015.46
1019.43 1019.22 1018.89 1018.47 1018.02 1017.69 1017.46 1017.09 1016.73 1016.36 1015.95 1015.53 1015.06 1014.47 1013.39 1013.33 1011.31 1008.39 1008.21 1008.42 1008.44 1008.34 1008.37 1008.02 1007.63 1007.69 1007.04 1006.27 1005.22 1006.55 1008.75 1009.26 1010.55 1009.97 1010.20 1010.64 1011.90 1012.49 1012.70 1013.15 1014.46 1015.04 1015.51 1015.59 1017.02
1019.32 1019.19 1018.72 1018.25 1017.87 1017.48 1017.17 1016.83 1016.50 1016.18 1015.83 1015.50 1015.07 1014.35 1013.13 1012.16 1009.46 1007.91 1008.20 1008.51 1008.47 1008.36 1008.35 1008.13 1007.78 1007.22 1007.02 1005.81 1005.59 1006.78 1008.99 1010.20 1010.61 1010.09 1010.07 1010.84 1011.94 1011.82 1013.20 1013.30 1015.00 1016.36 1016.50 1016.72 1017.23
1019.18 1018.95 1018.49 1018.10 1017.64 1017.23 1016.86 1016.59 1016.27 1015.98 1015.68 1015.46 1015.11 1014.42 1013.76 1011.12 1007.40 1007.51 1007.93 1008.40 1008.23 1008.28 1007.83 1007.42 1007.05 1006.32 1006.40 1006.41 1006.51 1007.64 1008.65 1009.12 1009.77 1010.35 1009.87 1010.62 1012.42 1012.64 1012.93 1014.44 1015.98 1015.94 1016.00 1016.78 1017.25
1019.12 1018.83 1018.32 1017.86 1017.45 1017.00 1016.58 1016.27 1015.99 1015.73 1015.45 1015.40 1015.15 1014.61 1013.19 1009.51 1007.10 1007.24 1007.56 1007.57 1007.40 1007.54 1007.45 1006.82 1006.43 1006.32 1006.39 1006.52 1006.69 1007.92 1008.51 1009.41 1009.55 1010.24 1010.82 1010.75 1012.39 1013.12 1013.92 1014.79 1014.96 1015.25 1016.17 1016.82 1017.43
1018.79 1018.51 1018.16 1017.71 1017.19 1016.80 1016.35 1015.90 1015.67 1015.38 1015.17 1015.14 1015.05 1014.39 1011.82 1007.55 1007.18 1007.00 1006.99 1007.04 1006.89 1006.78 1006.76 1006.38 1006.05 1006.22 1006.32 1006.22 1007.22 1008.04 1008.57 1009.81 1010.23 1011.03 1011.46 1012.38 1013.82 1014.46 1013.43 1013.51 1015.39 1015.91 1016.56 1017.16 1017.77
1018.61 1018.20 1017.93 1017.64 1017.11 1016.52 1015.95 1015.47 1015.21 1014.98 1014.79 1014.86 1014.72 1013.76 1010.57 1007.42 1006.95 1006.61 1006.57 1006.67 1006.68 1006.52 1006.40 1006.12 1006.23 1006.34 1006.03 1006.53 1008.05 1009.29 1010.02 1010.35 1010.94 1011.71 1011.69 1013.68 1017.36 1018.37 1016.78 1016.61 1017.65 1017.22 1016.98 1017.63 1017.79
1018.54 1018.18 1017.82 1017.36 1016.82 1016.31 1015.63 1014.86 1014.55 1014.77 1013.95 1014.13 1013.32 1012.78 1009.38 1007.14 1006.10 1006.12 1006.17 1006.28 1006.46 1006.43 1006.52 1006.32 1006.62 1006.62 1006.37 1007.07 1008.93 1010.62 1010.56 1010.83 1011.74 1013.40 1014.59 1016.39 1019.17 1019.67 1019.31 1017.80 1019.90 1021.60 1019.68 1018.15 1018.11
1018.41 1018.04 1017.58 1017.21 1016.72 1016.36 1015.29 1014.15 1014.67 1014.39 1013.20 1011.93 1010.77 1009.67 1007.35 1006.34 1005.77 1005.86 1005.83 1006.08 1006.16 1006.59 1006.90 1006.43 1007.07 1007.01 1006.67 1006.60 1007.55 1008.22 1009.81 1010.86 1012.33 1014.25 1015.36 1017.01 1017.71 1019.89 1021.00 1019.29 1021.57 1018.59 1020.15 1019.10 1018.40
1018.09 1017.72 1017.42 1017.02 1016.67 1016.34 1016.37 1014.98 1012.32 1011.57 1011.03 1009.83 1008.97 1008.57 1007.18 1006.17 1005.98 1005.80 1005.62 1006.29 1006.47 1006.85 1006.72 1007.01 1006.67 1005.58 1005.55 1006.07 1006.98 1007.75 1009.09 1010.88 1013.45 1013.74 1014.09 1015.87 1017.24 1018.81 1020.55 1021.18 1021.53 1020.10 1018.94 1019.11 1018.65
1017.67 1017.39 1017.09 1016.63 1016.37 1016.21 1015.16 1013.20 1011.06 1010.72 1010.62 1008.57 1007.57 1007.12 1006.26 1006.13 1005.75 1005.49 1005.74 1006.20 1006.47 1006.76 1006.66 1006.80 1006.02 1005.09 1005.38 1005.99 1006.82 1007.78 1009.11 1010.65 1013.32 1014.97 1016.59 1017.63 1019.08 1019.66 1019.43 1019.83 1020.64 1019.42 1019.44 1018.96 1018.21
1017.62 1017.24 1016.94 1016.64 1016.63 1014.66 1013.53 1011.11 1010.92 1010.64 1010.61 1007.91 1006.90 1006.02 1005.71 1005.59 1005.45 1004.97 1005.33 1006.02 1006.07 1006.23 1006.35 1006.13 1004.92 1004.90 1005.46 1005.97 1006.74 1008.56 1009.55 1011.15 1013.01 1014.87 1018.15 1019.52 1020.90 1020.11 1019.37 1019.34 1019.66 1019.78 1019.30 1018.36 1017.91
1017.60 1017.20 1016.84 1016.93 1016.29 1014.47 1012.02 1010.74 1010.74 1011.06 1010.07 1006.68 1006.04 1005.17 1005.24 1005.84 1005.20 1004.90 1005.01 1005.64 1006.16 1006.34 1006.35 1005.57 1005.12 1005.27 1005.59 1006.00 1006.50 1008.47 1009.28 1010.63 1012.35 1014.85 1017.28 1018.65 1019.79 1020.13 1020.32 1019.87 1019.78 1019.09 1018.70 1017.85 1017.98
1017.30 1017.04 1016.72 1016.61 1016.07 1013.24 1011.80 1011.30 1011.32 1011.49 1008.64 1006.33 1005.75 1005.52 1005.70 1005.77 1005.45 1005.03 1005.26 1005.61 1005.92 1006.35 1005.88 1005.26 1005.01 1005.18 1005.57 1005.98 1006.58 1007.51 1009.41 1010.95 1012.86 1015.06 1017.98 1018.85 1020.13 1019.84 1019.82 1018.76 1019.06 1018.55 1017.77 1017.68 1018.17
1017.04 1016.72 1016.61 1015.39 1013.95 1012.45 1011.70 1011.95 1011.85 1010.20 1006.45 1006.56 1006.05 1005.99 1006.19 1006.16 1005.85 1005.48 1005.79 1006.28 1006.63 1006.92 1006.54 1006.45 1005.57 1005.42 1005.65 1006.25 1006.74 1007.70 1009.28 1011.40 1013.69 1015.76 1017.80 1018.41 1019.40 1018.47 1017.84 1017.78 1017.72 1017.72 1017.26 1017.82 1018.22
1016.79 1016.51 1015.34 1014.35 1013.25 1012.93 1012.51 1012.56 1011.33 1008.46 1006.40 1005.38 1005.70 1006.17 1006.63 1006.48 1006.12 1006.08 1006.09 1006.68 1006.52 1006.95 1007.22 1007.59 1007.11 1006.11 1006.07 1006.63 1007.34 1008.24 1009.43 1011.32 1013.24 1015.21 1017.10 1018.84 1018.71 1017.91 1017.10 1017.46 1017.37 1017.13 1017.13 1017.45 1018.10
1016.37 1015.71 1014.75 1012.86 1012.84 1013.05 1013.33 1012.56 1010.02 1007.88 1006.29 1005.14 1005.50 1006.23 1006.55 1006.43 1006.35 1006.26 1006.26 1006.57 1006.53 1006.60 1007.60 1008.30 1007.79 1007.27 1006.65 1006.94 1007.54 1008.24 1009.17 1010.07 1011.87 1013.29 1016.20 1018.62 1018.21 1017.54 1016.99 1017.25 1017.08 1017.18 1017.27 1017.84 1018.50
1016.38 1015.16 1012.97 1011.53 1012.01 1012.90 1013.37 1011.77 1009.49 1007.64 1006.35 1005.72 1005.81 1005.79 1006.20 1006.37 1006.54 1006.41 1006.44 1006.23 1006.36 1006.52 1006.85 1008.91 1008.88 1007.96 1007.31 1007.19 1007.51 1008.13 1008.85 1010.25 1011.91 1013.98 1016.08 1018.54 1018.98 1019.29 1017.53 1017.28 1017.32 1017.23 1017.63 1018.01 1018.75
1016.41 1014.51 1011.48 1010.99 1011.93 1012.97 1012.85 1010.99 1009.06 1007.21 1006.77 1006.51 1006.37 1006.52 1005.81 1006.03 1006.32 1006.57 1006.54 1006.17 1006.07 1006.86 1006.66 1008.10 1009.28 1009.29 1008.36 1008.95 1008.83 1008.84 1009.75 1010.89 1012.03 1013.69 1015.26 1017.65 1019.00 1017.84 1017.40 1017.37 1017.23 1017.42 1017.63 1018.23 1018.87
1015.86 1014.00 1011.32 1011.37 1012.56 1012.47 1012.05 1010.55 1008.47 1007.57 1007.04 1006.74 1006.74 1006.81 1006.56 1006.15 1006.37 1006.55 1006.58 1006.62 1005.69 1006.29 1007.51 1007.99 1008.85 1010.04 1010.01 1009.39 1008.96 1009.25 1009.97 1011.12 1012.89 1014.05 1014.68 1015.70 1017.29 1015.95 1017.02 1017.34 1017.15 1017.71 1017.62 1018.26 1018.77
1016.09 1013.63 1011.46 1011.53 1012.44 1012.32 1011.55 1010.44 1009.20 1007.91 1007.00 1006.85 1006.98 1006.89 1006.73 1006.39 1006.53 1006.46 1006.74 1006.49 1006.07 1006.80 1007.85 1008.82 1009.51 1010.41 1010.58 1009.78 1009.30 1009.41 1009.65 1010.65 1011.80 1012.94 1014.21 1015.44 1016.51 1016.20 1017.12 1017.40 1017.71 1017.59 1017.63 1018.45 1019.05
1016.43 1013.72 1012.23 1012.08 1011.82 1012.05 1011.72 1010.29 1008.92 1007.29 1007.06 1006.99 1006.89 1006.99 1006.94 1006.56 1006.47 1006.85 1007.04 1006.92 1006.92 1007.59 1008.04 1008.36 1009.80 1010.50 1010.88 1010.11 1009.67 1009.53 1009.43 1009.96 1011.33 1013.23 1013.84 1014.75 1015.94 1016.89 1017.21 1017.41 1017.96 1017.51 1017.60 1018.42 1019.02
1015.87 1013.55 1012.40 1012.17 1011.99 1011.88 1011.51 1010.12 1008.85 1007.58 1007.24 1007.19 1007.14 1007.05 1007.19 1007.09 1006.85 1006.85 1007.17 1007.45 1007.61 1008.06 1008.34 1008.91 1010.11 1010.15 1010.40 1009.94 1009.45 1009.18 1009.18 1009.87 1010.86 1012.04 1013.75 1014.93 1015.21 1015.95 1016.63 1017.32 1017.50 1017.11 1017.67 1018.40 1019.04
1015.82 1014.26 1012.82 1012.05 1011.36 1011.34 1010.96 1009.80 1008.84 1007.47 1007.24 1007.23 1007.40 1007.15 1007.02 1007.21 1007.08 1006.98 1007.38 1007.54 1008.15 1008.50 1008.82 1009.25 1010.13 1010.56 1010.71 1009.93 1009.32 1009.19 1009.02 1009.38 1010.16 1011.59 1013.10 1013.81 1014.50 1014.70 1015.63 1016.28 1016.62 1016.71 1017.46 1018.12 1018.78
1015.51 1014.62 1013.86 1012.25 1011.44 1011.12 1010.26 1009.35 1008.30 1007.52 1006.95 1006.65 1007.00 1007.20 1007.20 1006.79 1006.51 1006.35 1006.77 1007.31 1007.69 1008.51 1009.45 1009.92 1010.76 1011.35 1011.48 1010.76 1010.18 1009.92 1009.32 1009.33 1010.21 1011.26 1012.41 1013.54 1014.11 1014.28 1015.26 1015.43 1015.74 1016.16 1016.86 1017.74 1018.48
Wind_Speed
11 11 12 12 12 12 13 14 15 16 16 17 17 16 17 18 22 3 5 4 4 4 3 7 8 10 9 13 12 6 2 2 17 12 9 9 3 17 6 5 3 8 15 18 18
11 12 12 12 12 13 13 14 15 16 16 17 17 17 16 14 5 8 5 2 2 4 2 5 10 9 6 10 7 6 6 5 17 17 18 13 15 9 9 8 3 20 19 22 20
11 12 12 13 13 13 13 14 15 16 16 17 17 18 18 11 4 2 6 5 4 5 3 5 10 9 10 7 7 8 13 18 19 19 17 11 7 7 6 6 2 17 18 21 28
11 12 12 12 13 14 14 14 14 15 16 16 18 20 23 3 4 2 7 6 6 6 4 8 8 9 7 11 6 24 20 19 14 14 10 10 8 6 6 10 13 17 8 15 12
11 11 12 13 13 14 14 14 14 14 15 15 16 19 10 5 9 6 7 5 3 2 5 5 10 10 7 9 15 21 22 10 9 14 9 12 17 14 7 14 16 16 17 13 8
11 11 12 13 14 14 14 14 13 14 14 14 14 20 3 4 3 12 9 6 7 6 6 8 9 9 5 7 12 13 17 11 5 3 3 9 10 11 4 15 19 18 16 15 12
11 11 11 13 14 14 14 14 12 13 13 13 11 7 5 14 7 8 11 8 8 9 8 9 9 11 8 6 8 14 13 5 3 3 2 5 8 21 19 19 19 21 17 17 18
11 11 11 13 14 14 14 14 13 13 14 12 5 3 9 7 9 7 7 8 10 9 9 10 8 6 3 5 7 8 5 5 3 4 4 4 4 11 18 19 19 19 18 15 11
12 12 11 12 14 14 15 15 15 15 12 9 3 3 10 10 3 9 7 7 7 7 9 10 5 5 7 2 5 10 1 5 3 6 4 13 13 20 15 29 18 11 10 11 10
12 12 12 13 13 13 17 14 4 11 4 6 7 6 7 5 5 7 7 9 5 7 7 6 3 2 6 4 2 6 2 3 3 6 23 22 19 14 7 20 21 21 8 9 13
12 12 12 12 11 11 11 4 3 2 4 8 4 5 5 4 4 2 9 7 5 5 6 9 1 7 16 8 5 19 6 6 4 22 11 10 17 10 7 18 8 12 9 11 11
12 12 11 11 10 9 3 4 6 5 8 11 18 15 20 0 3 8 6 3 4 8 8 7 8 16 3 6 1 6 4 5 12 13 9 9 7 6 5 6 8 12 10 3 8
13 13 11 11 10 3 5 9 10 8 3 9 8 9 8 6 9 9 9 7 7 9 11 8 14 3 4 7 6 6 9 7 14 13 14 10 9 7 6 3 4 2 1 7 10
13 12 10 9 4 4 6 11 8 4 2 6 7 6 5 6 5 9 10 8 5 13 9 12 5 3 6 8 8 8 13 18 14 5 6 4 3 5 6 10 4 6 10 6 8
11 11 8 0 6 4 8 8 7 5 2 11 8 3 5 6 2 5 10 7 13 15 12 5 5 9 7 5 6 6 15 9 7 8 7 6 5 8 7 6 7 8 10 8 9
11 9 4 3 3 9 11 9 4 2 6 7 7 5 4 8 11 5 5 1 5 11 20 5 8 7 3 7 5 4 7 4 7 5 6 2 4 8 5 8 2 8 6 8 10
11 8 2 6 5 10 7 4 2 4 6 11 9 9 6 8 12 5 6 5 5 6 5 13 3 7 5 4 5 9 7 4 5 5 5 9 6 10 13 10 12 9 8 9 9
11 6 9 6 7 10 5 4 4 9 12 14 13 11 10 12 9 8 7 6 9 5 1 4 8 7 4 4 2 6 4 5 3 4 4 9 0 7 9 14 12 8 9 9 10
11 3 4 6 10 4 3 2 5 5 12 3 14 13 9 8 6 6 6 7 8 8 7 4 6 12 8 3 2 6 5 6 3 1 7 3 4 6 7 14 10 11 10 7 9
3 4 6 8 8 3 1 5 5 7 9 8 4 11 9 12 7 4 4 5 8 2 11 4 3 16 6 2 2 2 5 6 6 3 5 2 6 7 8 7 8 12 10 6 8
1 3 3 9 6 2 4 7 7 1 4 5 7 7 3 8 8 3 5 11 1 6 9 12 7 7 10 4 5 8 6 6 3 4 2 5 4 9 16 7 8 9 8 9 9
2 3 4 6 3 3 4 5 7 3 3 3 4 5 4 4 6 6 3 1 7 6 4 3 5 3 2 6 3 3 5 6 6 7 2 6 5 4 10 6 11 10 9 8 10
2 4 2 6 2 5 6 15 17 19 3 5 3 5 8 3 3 1 5 8 7 6 5 1 3 4 9 7 5 2 4 6 2 2 3 5 1 7 14 17 9 9 9 8 10
2 3 1 1 4 3 7 9 12 4 5 7 4 5 6 4 0 3 3 3 6 4 2 9 3 6 7 7 3 4 5 6 6 3 2 4 8 10 9 11 6 3 8 9 10
3 5 3 4 5 6 6 8 12 6 7 4 6 4 5 3 5 1 6 4 5 2 1 5 2 4 3 8 6 5 4 8 6 5 7 4 7 10 12 16 16 7 8 10 11
2 4 6 7 6 8 8 8 12 8 7 6 6 9 6 4 4 2 5 4 4 2 1 2 0 3 5 8 6 6 6 6 6 9 8 8 5 9 13 12 8 8 13 10 11
3 5 2 8 5 4 7 9 8 9 9 9 8 6 6 10 7 6 2 8 9 9 4 5 4 4 4 10 12 8 3 7 7 6 7 5 5 7 6 9 9 9 13 10 10
Wind_Direction
327 323 320 323 322 324 322 319 319 316 316 315 319 321 317 322 312 158 263 253 193 141 179 275 289 255 255 263 258 258 28 185 104 106 145 95 95 354 356 105 341 38 71 100 108
322 320 320 316 319 319 317 315 315 314 315 315 319 319 315 330 294 255 209 197 228 192 235 264 289 298 267 271 268 169 117 9 102 138 134 143 98 108 327 323 132 78 78 73 39
318 317 315 315 315 314 313 311 311 312 313 315 319 316 310 317 309 259 189 195 250 234 282 293 271 284 285 282 260 6 106 100 111 125 122 125 105 128 359 320 246 114 102 89 77
315 312 311 312 312 310 306 305 308 310 312 317 320 316 311 196 26 155 168 215 227 287 281 311 308 314 305 292 14 73 108 89 104 115 129 137 117 64 156 243 61 109 86 77 93
313 308 312 311 306 302 301 303 305 307 310 316 321 318 341 312 251 154 148 212 217 228 243 267 294 294 304 338 74 94 97 77 116 153 151 122 122 128 231 232 102 104 98 111 112
313 313 312 306 303 300 300 299 301 302 307 314 321 315 299 288 149 147 167 172 241 206 245 240 252 289 35 50 66 97 97 123 132 306 88 118 149 136 335 115 105 120 111 116 112
309 309 310 304 299 300 297 294 298 297 304 309 317 306 287 242 296 176 170 207 215 215 252 275 309 18 339 354 94 131 111 138 117 230 340 355 85 112 128 125 123 94 89 80 93
313 312 310 302 301 300 295 295 295 294 298 296 307 287 255 267 245 302 186 240 240 242 237 284 306 306 281 210 25 69 62 52 143 102 297 46 81 38 103 106 95 86 82 88 110
314 315 312 303 299 303 301 296 290 286 275 277 262 198 271 311 234 241 205 237 216 254 267 272 304 257 316 80 52 16 54 303 314 140 216 50 36 11 1 55 38 92 114 116 112
312 310 309 306 307 311 305 273 280 326 235 227 256 315 273 250 228 200 217 241 208 240 271 252 264 235 302 76 205 155 201 249 167 93 60 63 61 50 12 53 358 336 277 119 91
312 310 310 307 311 324 337 12 359 12 261 211 192 269 245 212 67 223 216 236 217 275 252 272 226 234 227 232 218 181 157 197 103 140 103 106 77 35 95 109 133 86 39 95 111
315 312 311 308 312 325 304 277 330 264 308 249 244 265 261 297 198 241 195 200 206 247 262 316 247 259 155 236 78 48 94 93 70 101 80 81 129 124 62 122 176 133 142 197 115
322 316 314 316 318 306 231 256 280 310 299 289 230 244 245 210 240 216 167 211 232 235 258 231 260 209 290 38 71 49 79 48 119 85 51 87 4 4 331 133 189 109 171 202 140
321 316 311 318 323 290 227 253 245 53 318 252 194 240 237 215 259 210 184 205 245 247 265 262 231 148 65 56 48 62 92 99 159 96 103 310 285 272 284 339 353 287 305 175 116
320 313 303 232 299 308 299 334 27 44 321 153 181 236 191 192 261 221 191 235 256 286 311 258 31 80 83 68 54 154 122 136 111 82 93 11 98 287 341 314 300 303 272 133 129
324 322 323 187 230 250 293 303 31 21 245 166 146 206 159 223 253 199 191 262 301 285 287 230 147 109 90 81 79 294 146 57 73 116 48 243 106 276 233 213 328 284 194 129 104
324 314 260 318 248 313 287 4 358 221 156 146 166 155 195 244 247 207 179 249 228 346 357 342 160 106 84 14 28 17 12 344 17 39 195 147 110 242 217 232 202 211 106 105 107
315 301 222 231 285 316 338 15 243 288 281 162 160 160 193 215 240 253 179 217 271 249 355 82 332 24 71 58 43 303 120 134 285 163 162 158 56 291 197 213 201 143 108 97 100
311 207 252 238 216 249 40 244 232 308 324 81 154 155 209 212 220 218 173 208 240 229 137 142 302 312 72 357 91 303 2 230 182 325 91 76 326 335 161 170 139 118 99 109 113
331 280 248 229 169 103 83 257 277 287 347 8 341 170 186 188 194 213 176 253 252 123 122 33 38 287 174 249 186 235 256 10 0 8 77 357 79 299 270 150 151 128 123 125 118
222 285 250 112 81 65 208 246 304 260 55 337 6 337 276 157 160 234 213 268 72 167 110 153 134 329 56 6 351 355 12 20 90 67 97 149 220 233 230 169 143 133 129 111 111
302 299 197 103 83 213 230 257 267 9 142 305 349 299 287 193 171 203 246 281 133 104 44 27 129 95 197 288 322 334 109 93 107 309 302 117 287 264 126 132 110 114 102 105 105
271 251 232 107 205 249 268 272 277 284 246 181 245 264 317 32 131 58 94 303 51 67 115 18 352 93 343 2 337 292 141 116 146 71 289 98 192 98 83 55 13 124 126 117 112
284 275 227 175 249 297 311 279 266 250 327 325 222 258 332 358 1 87 130 43 44 86 196 93 49 132 174 209 284 256 180 173 118 71 330 55 102 95 110 122 214 244 139 131 125
242 266 282 203 242 228 251 286 298 254 194 270 311 232 266 310 341 56 115 104 82 27 92 101 102 353 285 243 250 321 320 105 91 57 88 135 109 150 164 167 199 169 135 122 117
300 343 338 288 194 194 232 265 271 258 171 202 228 282 217 243 235 318 152 154 185 142 53 34 135 15 288 345 318 229 292 130 124 115 76 97 80 117 144 164 149 171 123 119 119
355 324 319 280 291 193 247 260 273 254 270 164 196 228 244 243 250 264 193 205 171 145 167 131 110 71 292 47 359 329 0 106 109 93 116 95 141 98 135 155 168 150 126 123 123